Theta_e
322 318 313 308 294 293 288 293 298 300 301 305 309 308 309 311 311 311 333 347 346 345 348 348 348 350 352 353 353 353 354 354 354 354 353 353 354 354 354 354 354 355 355 353 353 353 352 351 349
318 320 311 300 291 287 289 297 298 301 307 309 311 310 312 311 319 321 330 346 347 347 347 347 347 349 351 352 353 353 355 354 353 353 353 353 354 354 354 354 352 353 355 353 353 352 351 349 347
319 315 300 295 291 288 290 297 300 304 308 308 305 310 312 312 320 323 335 341 348 345 347 347 345 347 350 351 352 353 353 352 352 352 353 354 353 354 354 353 352 353 354 353 352 352 349 347 345
311 306 302 293 292 295 296 299 304 305 306 308 307 308 313 319 320 327 333 339 346 345 347 343 343 346 349 350 352 352 352 350 350 351 352 353 354 353 352 351 351 353 353 354 352 350 347 343 342
309 302 294 293 296 300 299 301 303 303 307 307 307 306 309 315 318 329 331 341 347 346 345 344 343 345 348 351 352 350 350 349 349 350 351 352 353 352 350 349 350 351 352 352 350 347 343 341 340
300 300 291 289 295 303 304 306 307 307 309 308 308 308 309 316 315 319 332 338 350 347 345 345 345 345 346 348 348 348 348 348 347 348 349 350 350 349 348 347 348 349 349 349 347 342 341 341 340
296 295 291 293 296 299 303 307 306 305 307 308 309 304 307 311 313 315 329 336 349 349 345 344 344 345 344 343 344 344 345 345 345 346 346 347 346 346 346 346 347 348 348 347 344 341 340 340 339
301 297 293 294 296 297 304 308 309 306 303 311 311 304 302 308 313 314 320 332 338 347 347 344 343 342 341 341 341 341 342 343 343 344 343 343 343 344 344 344 345 347 346 345 343 340 339 339 338
302 294 290 294 297 298 304 304 307 307 305 307 310 308 310 312 312 312 311 324 336 341 346 345 344 343 341 341 342 341 342 342 342 343 342 339 343 343 343 342 342 345 344 343 341 340 338 337 337
298 292 295 301 299 298 302 303 301 302 303 304 306 308 311 310 309 309 310 310 316 335 341 346 345 343 344 346 341 339 341 340 342 343 343 342 342 341 344 341 340 343 342 341 340 338 337 336 333
298 296 301 303 302 301 299 300 301 298 297 301 301 304 307 308 308 309 310 310 311 315 318 338 346 346 345 345 342 341 341 340 340 342 342 342 343 341 341 338 340 340 340 338 337 335 334 334 332
295 301 301 301 303 301 298 299 298 295 297 303 303 304 305 305 305 307 308 311 313 314 316 318 330 343 343 343 343 343 342 341 340 340 342 341 340 338 339 337 338 339 338 335 334 333 333 332 332
297 299 301 302 301 298 301 298 298 296 301 304 305 306 304 304 306 308 310 310 311 311 313 314 318 323 329 340 340 339 341 341 341 340 341 343 340 338 338 338 338 338 337 336 334 334 333 332 332
299 299 297 298 298 298 298 296 295 299 303 304 305 304 303 305 307 307 307 306 307 309 309 311 312 315 317 322 338 339 338 337 340 341 342 343 342 339 339 338 338 337 337 336 335 334 334 332 332
300 295 296 297 297 294 296 294 293 299 301 301 301 301 304 305 306 305 305 305 305 306 307 307 309 310 310 315 321 331 337 340 337 342 340 343 342 340 339 339 338 337 336 335 334 334 334 333 332
293 292 287 296 297 296 295 288 298 298 300 296 298 301 303 304 304 304 305 305 306 305 304 305 307 306 306 309 316 324 330 337 337 339 341 342 343 342 340 340 339 337 335 334 333 333 332 332 331
290 285 288 291 296 294 292 289 294 296 296 295 296 298 302 302 303 303 304 303 304 303 303 303 303 303 304 307 312 313 319 330 337 339 339 339 341 341 342 341 340 337 335 334 334 332 333 330 330
286 286 289 288 290 292 288 288 293 293 295 295 295 299 299 299 299 302 302 302 301 301 301 301 302 302 302 304 304 307 312 317 323 335 334 337 339 341 342 341 340 337 338 334 333 332 331 331 330
290 289 286 288 292 289 288 287 289 290 294 294 296 296 296 297 300 301 301 301 299 299 299 299 298 299 299 299 298 301 303 307 316 327 328 327 338 339 341 341 340 338 337 336 332 329 329 329 329
290 288 286 289 293 289 286 285 288 291 293 295 295 295 295 296 298 299 299 299 297 297 297 297 297 296 297 297 297 299 301 306 310 315 312 318 330 337 339 339 338 339 338 334 331 329 328 330 328
288 287 286 286 289 287 285 283 286 293 296 297 296 296 296 296 295 297 298 297 296 296 296 296 296 295 295 295 296 296 299 301 303 303 306 310 315 319 334 337 338 337 339 336 335 332 329 327 330
285 291 290 288 284 278 285 275 286 291 292 293 294 293 293 294 295 296 295 295 295 295 295 295 295 295 295 294 294 293 293 294 298 299 304 305 312 317 324 335 337 337 337 335 334 335 332 330 326
288 290 288 287 283 279 282 278 282 292 289 290 291 293 293 293 294 294 294 294 294 293 292 293 295 294 294 293 292 292 291 293 296 299 300 304 309 313 319 327 334 335 336 334 333 333 331 331 328
290 287 285 284 282 276 282 281 279 286 289 290 292 293 294 293 293 294 294 294 292 292 291 291 291 293 293 293 292 291 290 291 292 296 298 300 305 309 317 326 331 333 336 332 334 333 332 331 330
287 282 275 275 274 274 285 282 284 290 291 292 291 291 292 292 292 291 291 290 292 290 290 291 290 289 291 291 291 290 290 291 291 293 296 298 302 306 311 317 327 331 331 333 333 330 330 329 329
284 283 275 273 274 276 285 278 284 291 293 293 293 292 292 290 291 291 291 291 290 290 289 289 288 288 290 289 290 290 290 291 292 293 294 297 300 302 306 312 321 326 329 330 329 323 322 324 325
285 280 286 280 280 275 279 285 290 292 291 291 290 291 289 290 291 291 292 292 290 289 288 287 287 287 288 289 289 289 289 290 291 292 294 297 299 301 303 311 318 320 323 323 322 320 320 325 324
286 287 279 278 273 272 276 280 281 287 289 291 289 289 290 291 292 292 292 291 290 288 287 287 287 286 288 287 289 290 290 291 291 292 292 293 297 299 301 305 310 320 319 322 320 318 318 320 320
283 281 283 282 279 274 273 276 289 289 290 289 289 291 289 289 290 291 291 290 289 288 287 286 286 286 286 286 288 288 290 290 290 290 290 292 295 298 299 301 305 311 320 319 319 319 319 318 318
287 285 284 275 275 276 274 276 290 290 290 290 290 292 290 290 290 290 290 289 287 287 287 287 285 285 286 286 288 287 288 289 289 289 289 290 292 297 297 299 302 307 306 307 311 317 316 315 315
Wind_Speed
5 6 2 3 5 4 4 7 3 10 6 4 4 8 11 4 5 5 5 10 13 12 7 7 11 12 12 11 13 15 14 14 14 10 9 8 9 9 9 8 7 8 8 10 10 10 11 10 11
5 5 1 3 4 2 8 4 10 6 2 4 5 4 6 4 5 5 4 10 13 11 8 6 10 11 11 10 11 13 14 12 13 12 11 9 8 9 8 8 7 7 7 9 10 10 10 9 9
4 3 3 3 3 4 3 3 8 6 6 7 4 7 5 3 6 4 5 10 13 12 11 10 10 10 10 10 9 11 12 12 11 12 11 11 9 8 8 8 7 7 7 7 8 9 9 9 9
3 4 5 1 8 8 6 4 5 6 6 8 7 7 6 7 4 4 8 7 13 11 13 14 12 10 10 10 9 9 11 11 10 11 11 10 10 10 10 9 8 7 7 7 8 8 8 9 8
1 1 1 3 10 6 3 4 5 7 5 8 7 5 7 5 9 7 8 11 13 5 8 12 15 12 10 10 10 10 11 10 10 11 11 10 9 9 9 9 8 7 7 8 9 8 9 9 8
4 3 3 4 7 7 5 6 5 7 7 6 8 6 4 3 8 5 7 9 11 10 5 7 9 10 10 10 10 10 10 10 10 10 11 11 10 10 9 8 6 5 6 7 7 8 8 8 7
3 2 5 7 9 7 4 7 8 7 11 8 5 2 5 8 6 8 4 7 11 11 10 7 7 7 8 9 9 9 9 10 9 9 9 10 9 9 9 9 8 7 7 6 6 7 7 6 6
3 3 6 6 8 1 7 3 6 10 5 2 4 3 4 2 9 10 8 4 7 9 9 10 9 7 5 6 7 9 10 10 10 9 8 8 9 10 9 9 8 8 9 8 8 8 7 6 4
1 3 3 6 5 5 10 8 9 4 4 4 2 2 4 7 10 10 9 3 2 3 9 7 9 9 7 6 5 7 10 12 12 9 9 8 5 6 9 9 11 11 10 8 8 8 8 7 6
5 4 8 5 3 5 7 8 7 7 8 7 9 12 11 10 10 9 8 8 3 5 5 9 8 9 10 7 6 5 5 4 7 8 8 5 6 6 9 10 12 12 11 10 9 9 8 7 4
5 7 7 9 4 5 4 5 6 7 6 4 7 8 10 10 10 9 10 11 14 18 19 10 8 8 8 7 5 4 4 4 4 9 8 7 7 5 6 4 6 6 9 4 6 6 4 6 4
5 8 6 7 6 4 4 4 4 3 3 7 8 7 7 10 11 11 12 15 18 20 22 20 14 3 8 5 6 6 5 5 5 6 9 7 4 5 6 5 7 7 6 7 6 4 5 6 7
4 3 4 5 7 4 5 6 4 5 6 8 9 6 5 6 7 11 22 19 20 22 21 21 22 20 16 6 5 5 7 6 6 6 8 8 7 5 5 6 7 7 8 8 8 7 7 7 8
7 6 6 6 9 7 5 4 3 3 7 7 6 2 9 12 20 22 22 20 20 19 20 20 20 19 20 18 12 4 3 6 5 7 8 9 8 7 5 7 9 9 9 9 9 9 8 8 7
6 7 8 9 9 2 6 11 7 7 7 6 8 10 15 22 23 21 18 19 19 16 18 20 19 19 19 17 16 12 6 5 4 6 7 11 9 10 11 7 7 9 9 11 8 10 9 8 7
4 5 2 9 10 5 9 4 3 4 8 7 5 10 18 24 22 20 19 19 20 21 22 20 18 21 21 17 14 12 12 5 6 4 4 7 12 9 10 9 7 6 9 9 10 10 9 10 9
4 5 7 3 7 8 6 5 5 8 2 6 11 10 19 19 22 20 20 19 19 20 22 23 23 20 20 18 14 14 15 13 4 6 5 7 8 14 9 9 8 6 7 9 9 10 10 9 9
2 2 5 2 1 5 4 2 7 8 11 12 11 16 16 18 18 17 18 17 17 18 18 20 18 21 21 13 13 11 11 11 13 5 6 12 11 14 14 7 9 7 9 8 9 11 9 9 8
2 3 7 6 5 6 6 5 6 3 9 11 13 14 14 16 13 15 15 14 13 14 15 16 20 21 17 14 15 13 13 12 10 12 12 16 18 18 14 13 13 8 11 13 10 7 11 7 6
4 5 5 6 4 6 7 7 8 3 7 15 15 14 13 13 15 16 15 11 10 10 11 14 15 17 15 13 12 10 11 7 11 9 13 14 19 14 16 15 13 17 11 12 9 11 7 8 6
3 4 3 3 6 4 5 6 9 10 20 17 16 14 13 13 12 12 9 8 8 9 11 14 15 15 15 18 12 12 9 8 8 13 13 14 18 20 20 18 18 15 13 13 13 11 13 11 9
5 5 6 6 7 3 6 7 3 17 14 15 12 11 8 8 7 5 10 11 12 12 12 12 14 16 14 17 15 17 13 13 11 11 12 16 17 18 18 21 19 17 12 14 15 12 13 12 11
2 5 4 3 5 6 4 4 7 17 10 11 10 9 7 7 7 9 7 7 7 7 8 10 14 14 16 14 15 14 17 13 12 11 16 16 16 17 19 18 20 17 13 13 13 14 12 10 11
3 3 3 4 3 4 12 10 1 10 17 10 10 7 8 8 8 7 7 8 5 6 8 9 13 16 16 16 18 17 18 19 17 16 14 13 14 15 19 17 16 17 14 14 11 13 13 13 12
3 4 4 4 2 7 5 8 6 12 13 12 11 9 8 6 4 3 5 5 7 7 8 9 10 13 13 14 15 16 18 18 18 17 13 18 14 15 18 20 16 14 15 14 11 10 10 10 9
7 7 6 4 2 5 8 2 5 12 12 10 10 7 3 3 2 4 6 4 6 7 7 8 9 12 15 17 15 14 17 12 12 12 14 13 13 14 21 21 15 15 12 10 8 3 4 6 7
1 3 1 1 4 1 4 5 6 10 10 8 7 6 4 4 6 7 6 7 6 6 6 6 7 9 14 15 14 13 16 16 14 17 15 13 15 14 19 20 17 7 7 5 7 6 7 9 8
4 2 5 3 1 4 5 4 5 9 7 10 7 7 7 8 8 7 6 6 3 3 3 5 5 7 11 13 12 12 14 14 15 14 16 18 16 17 18 19 18 9 4 5 5 6 5 8 7
2 2 2 2 4 3 1 1 5 9 7 7 6 6 5 5 4 4 4 3 4 4 6 5 5 7 8 10 12 13 13 15 15 14 15 16 19 17 16 19 21 16 6 5 5 5 5 6 5
7 6 7 6 5 2 4 4 3 7 7 8 5 4 4 6 7 5 5 5 6 7 7 6 6 7 6 7 10 13 13 14 15 14 15 16 18 15 14 17 20 17 16 14 10 2 4 8 9
Wind_Direction
314 268 163 354 40 68 275 269 161 35 35 353 49 71 111 67 41 95 266 108 105 122 130 134 121 119 121 126 130 132 135 138 135 134 132 131 123 117 116 109 107 111 113 115 114 107 110 112 110
329 305 134 286 94 24 287 169 85 90 111 349 65 43 59 73 28 87 34 118 121 129 142 124 116 116 119 124 133 134 136 141 141 142 142 139 132 128 125 121 115 114 117 123 125 115 116 118 120
304 217 67 150 177 175 220 321 128 118 66 44 41 50 86 88 44 73 3 101 127 142 135 127 119 124 126 129 132 136 137 142 144 147 150 148 145 138 135 135 128 122 119 127 130 123 124 127 130
319 355 340 89 257 271 206 211 105 126 66 67 56 56 59 64 70 77 25 33 142 147 134 138 134 138 141 134 135 136 140 146 151 153 155 155 155 151 152 151 152 151 142 136 130 132 134 135 140
260 332 285 277 287 284 118 108 68 55 98 60 67 27 87 44 77 86 52 66 84 61 121 143 144 150 152 144 142 144 145 155 159 162 160 160 158 157 158 155 157 155 161 147 137 140 140 143 149
339 110 357 285 313 15 22 64 53 59 68 48 55 68 74 110 62 79 90 92 119 114 91 122 136 147 150 150 153 155 153 159 167 170 167 166 163 162 161 159 152 148 142 139 147 150 152 155 163
162 87 251 306 291 13 26 46 26 53 53 43 103 84 161 52 44 18 128 112 130 129 134 141 143 149 155 163 165 163 162 159 167 175 175 168 163 162 166 163 159 157 155 155 156 164 163 165 171
164 90 317 282 296 10 18 60 64 35 50 39 60 61 337 335 36 26 59 78 112 139 149 158 153 149 165 170 174 170 169 163 166 173 175 169 165 163 166 170 170 169 170 170 170 170 168 171 179
142 40 294 262 26 334 27 19 4 5 12 7 126 60 38 39 44 26 1 45 15 149 155 159 158 158 161 167 184 186 183 172 165 170 177 168 179 178 176 176 175 175 179 178 178 175 171 169 177
128 147 237 243 51 15 20 22 358 22 359 349 32 26 28 24 25 24 1 352 28 272 205 162 165 167 163 174 170 182 203 201 175 171 180 189 192 188 185 185 176 177 177 177 178 177 175 171 182
235 212 258 298 354 53 60 15 355 17 347 65 62 24 22 30 23 13 8 18 46 45 25 323 169 168 167 179 164 184 189 197 208 181 178 196 201 195 196 184 172 166 176 170 169 169 181 189 195
257 255 254 301 337 23 349 309 326 304 281 95 76 59 37 32 23 55 52 35 30 27 22 7 357 254 177 172 168 184 189 194 205 214 182 185 213 215 206 182 174 172 170 174 174 179 190 207 209
249 246 266 304 311 302 294 274 251 275 111 75 76 59 67 53 69 52 48 37 31 26 17 14 12 16 352 278 180 185 189 188 198 205 207 188 197 216 194 189 184 184 175 178 177 181 198 210 215
303 315 318 318 296 297 292 301 29 100 126 119 113 171 56 81 54 50 41 35 30 22 18 11 12 10 360 357 324 268 213 200 195 199 208 206 198 206 200 196 199 190 185 188 181 183 193 212 207
323 338 317 274 240 147 76 324 174 179 150 108 78 69 71 67 54 51 45 38 29 19 12 14 5 7 3 351 342 334 309 267 217 208 206 210 206 206 212 207 203 196 190 191 187 192 190 202 208
294 294 289 274 144 182 103 242 114 162 157 113 100 99 79 65 60 48 41 35 31 20 12 6 6 1 358 351 340 347 323 291 274 247 211 215 217 216 218 216 210 192 197 193 194 193 194 199 203
229 246 196 260 127 128 115 261 294 338 352 162 83 82 74 61 53 48 39 36 32 21 11 2 359 1 354 347 351 345 341 325 276 280 276 236 227 226 216 215 220 201 201 206 197 203 199 194 197
358 319 339 90 61 87 137 225 315 334 92 93 82 68 61 58 50 49 47 39 36 25 13 0 357 355 352 352 347 343 343 338 330 283 281 290 260 235 225 214 222 216 224 216 209 200 200 194 190
325 309 318 305 290 151 178 196 258 280 93 91 79 70 60 58 58 52 48 45 39 29 18 10 356 354 350 354 347 345 341 327 320 322 272 281 262 241 234 227 223 212 219 220 213 198 196 208 167
316 305 282 274 311 61 348 295 274 104 112 94 89 74 66 53 47 46 43 32 49 34 18 11 3 356 348 350 337 330 323 313 310 334 324 322 309 262 228 224 225 227 218 223 195 194 201 211 195
300 278 323 314 340 7 341 296 259 120 93 86 77 77 65 62 46 40 38 39 50 33 21 11 359 356 349 346 334 333 321 321 330 331 322 317 313 299 288 228 220 227 222 218 215 205 204 209 207
270 50 29 6 19 253 64 285 23 133 98 89 87 82 77 71 61 43 40 38 37 27 15 5 359 353 349 348 341 339 334 330 327 316 309 311 306 302 291 269 230 222 227 228 231 228 214 213 222
120 56 32 325 309 331 183 263 247 134 115 110 97 91 87 79 61 47 57 55 41 29 17 2 355 349 346 348 345 339 335 322 317 313 316 312 309 309 305 303 255 231 222 234 224 223 218 214 219
29 52 310 244 150 286 243 195 303 209 140 118 103 89 68 49 48 39 51 52 17 27 10 3 360 343 349 343 343 340 330 328 324 324 321 323 316 314 311 300 289 245 222 228 217 231 217 221 228
91 58 327 348 129 226 308 171 72 88 96 105 104 72 43 6 30 13 68 47 22 38 12 359 355 344 341 339 340 336 327 326 324 321 321 319 319 320 313 320 301 263 238 239 223 225 223 224 230
187 161 163 250 186 297 317 333 108 96 91 91 99 113 118 16 359 28 73 48 28 28 17 357 353 343 340 337 336 336 330 324 318 320 315 309 316 315 313 309 292 282 251 234 222 177 152 158 159
185 155 120 356 327 32 223 93 109 142 140 140 144 124 98 39 28 34 45 42 49 19 8 354 344 338 339 336 330 335 329 331 327 323 316 316 314 317 320 307 311 274 261 218 201 185 174 170 157
61 325 61 353 265 247 281 114 165 169 118 92 70 54 42 27 10 24 32 63 21 15 355 356 344 323 337 331 325 332 324 331 326 323 322 324 321 314 337 323 335 294 202 147 145 138 140 150 167
117 209 181 153 165 206 321 58 130 105 104 97 72 66 62 25 12 51 65 49 11 5 3 348 335 322 333 328 335 330 330 337 328 329 326 325 318 324 343 336 336 335 252 171 141 143 164 188 215
176 193 166 136 254 239 167 221 86 105 107 98 67 43 57 35 13 29 47 38 12 3 342 328 332 323 314 313 340 327 337 333 331 327 330 326 323 329 331 355 330 22 10 55 41 168 248 205 242